• In Italy
  • List of Countries
  • For 7 days
  • Water Temperature
  • Satellite Maps
  • Weather Map
  • Weather Widgets
  • user-avatar
    Login

    Hourly Weather Hajfa

    Today, 17 January, Wednesday

    Time Temperature Precipitation Wind Pressure Humidity
    00:00 +13°C° 0 mm 3 mps 761 mmHg 73%
    01:00 +13°C° 0 mm 3 mps 761 mmHg 73%
    02:00 +13°C° 0 mm 3 mps 760 mmHg 75%
    03:00 +13°C° 0.1 mm 3 mps 760 mmHg 75%
    04:00 +13°C° 0.1 mm 3 mps 760 mmHg 76%
    05:00 +13°C° 0.1 mm 3 mps 759 mmHg 77%
    06:00 +13°C° 0.2 mm 4 mps 759 mmHg 77%
    07:00 +13°C° 0.2 mm 4 mps 759 mmHg 76%
    08:00 +14°C° 0 mm 5 mps 759 mmHg 78%
    09:00 +14°C° 1 mm 5 mps 759 mmHg 75%
    10:00 +15°C° 1 mm 6 mps 758 mmHg 73%
    11:00 +16°C° 1 mm 6 mps 758 mmHg 70%
    12:00 +16°C° 0.7 mm 6 mps 758 mmHg 70%
    13:00 +16°C° 0.7 mm 6 mps 758 mmHg 70%
    14:00 +16°C° 0.7 mm 6 mps 758 mmHg 70%
    15:00 +16°C° 0.2 mm 5 mps 758 mmHg 73%
    16:00 +15°C° 0.2 mm 5 mps 758 mmHg 75%
    17:00 +14°C° 0.2 mm 4 mps 758 mmHg 77%
    18:00 +14°C° 0.1 mm 4 mps 758 mmHg 78%
    19:00 +14°C° 0.1 mm 4 mps 758 mmHg 79%
    20:00 +14°C° 0.1 mm 4 mps 758 mmHg 80%
    21:00 +14°C° 0.1 mm 4 mps 758 mmHg 80%
    22:00 +14°C° 0.1 mm 4 mps 758 mmHg 81%
    23:00 +14°C° 0.1 mm 4 mps 758 mmHg 81%

    Tomorrow, 18 January, Thursday

    Time Temperature Precipitation Wind Pressure Humidity
    00:00 +13°C° 0.2 mm 5 mps 758 mmHg 82%
    01:00 +13°C° 0.2 mm 5 mps 757 mmHg 83%
    02:00 +13°C° 0.2 mm 5 mps 757 mmHg 84%
    03:00 +13°C° 0.5 mm 6 mps 757 mmHg 84%
    04:00 +14°C° 0.5 mm 6 mps 757 mmHg 84%
    05:00 +14°C° 0.5 mm 7 mps 756 mmHg 83%
    06:00 +14°C° 0.4 mm 7 mps 756 mmHg 83%
    07:00 +13°C° 0.4 mm 8 mps 756 mmHg 83%
    08:00 +13°C° 0.4 mm 8 mps 756 mmHg 82%
    09:00 +15°C° 0.5 mm 9 mps 756 mmHg 78%
    10:00 +14°C° 0.5 mm 10 mps 756 mmHg 75%
    11:00 +16°C° 0.5 mm 11 mps 755 mmHg 71%
    12:00 +16°C° 0.1 mm 11 mps 755 mmHg 67%
    13:00 +17°C° 0.1 mm 12 mps 754 mmHg 64%
    14:00 +17°C° 0.1 mm 12 mps 753 mmHg 60%
    15:00 +17°C° 0.1 mm 12 mps 753 mmHg 62%
    16:00 +16°C° 0.1 mm 11 mps 752 mmHg 64%
    17:00 +14°C° 0.1 mm 11 mps 752 mmHg 65%
    18:00 +14°C° 1.6 mm 12 mps 751 mmHg 65%
    19:00 +14°C° 1.6 mm 13 mps 751 mmHg 64%
    20:00 +15°C° 1.6 mm 13 mps 750 mmHg 64%
    21:00 +14°C° 2.5 mm 14 mps 750 mmHg 69%
    22:00 +13°C° 2.5 mm 15 mps 750 mmHg 74%
    23:00 +11°C° 2.5 mm 15 mps 750 mmHg 79%

    Day after tomorrow, 19 January, Friday

    Time Temperature Precipitation Wind Pressure Humidity
    00:00 +10°C° 0.7 mm 15 mps 750 mmHg 74%
    01:00 +10°C° 0.7 mm 15 mps 750 mmHg 70%
    02:00 +9°C° 0.7 mm 15 mps 750 mmHg 66%
    03:00 +9°C° 1.1 mm 14 mps 751 mmHg 68%
    04:00 +9°C° 1.1 mm 13 mps 751 mmHg 70%
    05:00 +9°C° 1.1 mm 12 mps 751 mmHg 72%
    06:00 +9°C° 0.7 mm 12 mps 752 mmHg 71%
    07:00 +9°C° 0.7 mm 12 mps 753 mmHg 69%
    08:00 +10°C° 0.7 mm 12 mps 754 mmHg 67%
    09:00 +11°C° 0.2 mm 11 mps 755 mmHg 63%
    10:00 +12°C° 0.2 mm 11 mps 756 mmHg 60%
    11:00 +13°C° 0.2 mm 11 mps 756 mmHg 57%
    12:00 +13°C° 0.1 mm 11 mps 756 mmHg 57%
    13:00 +13°C° 0.1 mm 11 mps 757 mmHg 57%
    14:00 +13°C° 0.1 mm 11 mps 757 mmHg 57%
    15:00 +13°C° 0 mm 10 mps 757 mmHg 59%
    16:00 +12°C° 0 mm 9 mps 758 mmHg 62%
    17:00 +11°C° 0 mm 9 mps 758 mmHg 64%
    18:00 +11°C° 0 mm 8 mps 759 mmHg 66%
    19:00 +11°C° 0 mm 7 mps 760 mmHg 67%
    20:00 +11°C° 0 mm 7 mps 760 mmHg 68%
    21:00 +11°C° 0 mm 6 mps 761 mmHg 69%
    22:00 +10°C° 0 mm 5 mps 761 mmHg 69%
    23:00 +10°C° 0 mm 5 mps 761 mmHg 69%

    20 January, Saturday

    Time Temperature Precipitation Wind Pressure Humidity
    00:00 +11°C° 0 mm 4 mps 762 mmHg 68%
    01:00 +11°C° 0 mm 3 mps 762 mmHg 68%
    02:00 +11°C° 0 mm 3 mps 762 mmHg 67%
    03:00 +10°C° 0 mm 3 mps 762 mmHg 67%
    04:00 +10°C° 0 mm 2 mps 763 mmHg 67%
    05:00 +10°C° 0 mm 2 mps 763 mmHg 67%
    06:00 +12°C° 0 mm 2 mps 763 mmHg 67%
    07:00 +12°C° 0 mm 2 mps 763 mmHg 67%
    08:00 +12°C° 0 mm 3 mps 764 mmHg 66%
    09:00 +13°C° 0 mm 3 mps 764 mmHg 63%
    10:00 +16°C° 0 mm 3 mps 764 mmHg 60%
    11:00 +17°C° 0 mm 3 mps 764 mmHg 57%
    12:00 +17°C° 0 mm 3 mps 764 mmHg 57%
    13:00 +18°C° 0 mm 3 mps 763 mmHg 57%
    14:00 +18°C° 0 mm 3 mps 763 mmHg 57%
    15:00 +17°C° 0 mm 3 mps 763 mmHg 61%
    16:00 +16°C° 0 mm 2 mps 763 mmHg 65%
    17:00 +15°C° 0 mm 2 mps 763 mmHg 69%
    18:00 +15°C° 0 mm 1 mps 763 mmHg 70%
    19:00 +14°C° 0 mm 1 mps 764 mmHg 72%
    20:00 +13°C° 0 mm 0 mps 764 mmHg 73%
    21:00 +13°C° 0 mm 1 mps 764 mmHg 74%
    22:00 +13°C° 0 mm 1 mps 764 mmHg 75%
    23:00 +13°C° 0 mm 2 mps 764 mmHg 76%

    21 January, Sunday

    Time Temperature Precipitation Wind Pressure Humidity
    00:00 +13°C° 0 mm 2 mps 763 mmHg 77%
    01:00 +13°C° 0 mm 2 mps 763 mmHg 77%
    02:00 +12°C° 0 mm 3 mps 763 mmHg 78%
    03:00 +11°C° 0 mm 3 mps 763 mmHg 76%
    04:00 +11°C° 0 mm 3 mps 762 mmHg 74%
    05:00 +11°C° 0 mm 4 mps 762 mmHg 73%
    06:00 +12°C° 0 mm 4 mps 762 mmHg 70%
    07:00 +12°C° 0 mm 4 mps 762 mmHg 67%
    08:00 +13°C° 0 mm 4 mps 762 mmHg 64%
    09:00 +14°C° 0 mm 5 mps 761 mmHg 57%
    10:00 +16°C° 0 mm 5 mps 761 mmHg 50%
    11:00 +19°C° 0 mm 5 mps 761 mmHg 42%
    12:00 +20°C° 0 mm 5 mps 760 mmHg 41%
    13:00 +20°C° 0 mm 5 mps 759 mmHg 39%
    14:00 +21°C° 0 mm 4 mps 758 mmHg 37%
    15:00 +20°C° 0 mm 4 mps 758 mmHg 38%
    16:00 +19°C° 0 mm 4 mps 758 mmHg 40%
    17:00 +18°C° 0 mm 4 mps 757 mmHg 42%
    18:00 +16°C° 0 mm 5 mps 757 mmHg 41%
    19:00 +16°C° 0 mm 5 mps 757 mmHg 40%
    20:00 +15°C° 0 mm 6 mps 757 mmHg 40%
    21:00 +15°C° 0 mm 6 mps 756 mmHg 40%
    22:00 +15°C° 0 mm 6 mps 756 mmHg 40%
    23:00 +14°C° 0 mm 6 mps 756 mmHg 40%

    22 January, Monday

    Time Temperature Precipitation Wind Pressure Humidity
    00:00 +14°C° 0 mm 6 mps 755 mmHg 39%
    01:00 +14°C° 0 mm 6 mps 755 mmHg 37%
    02:00 +14°C° 0 mm 6 mps 754 mmHg 36%
    03:00 +13°C° 0 mm 6 mps 754 mmHg 36%
    04:00 +13°C° 0 mm 6 mps 754 mmHg 35%
    05:00 +13°C° 0 mm 6 mps 754 mmHg 34%
    06:00 +14°C° 0 mm 6 mps 754 mmHg 36%
    07:00 +14°C° 0 mm 6 mps 754 mmHg 38%
    08:00 +14°C° 0 mm 6 mps 754 mmHg 41%
    09:00 +16°C° 0 mm 6 mps 754 mmHg 40%
    10:00 +19°C° 0 mm 6 mps 754 mmHg 40%
    11:00 +21°C° 0 mm 7 mps 754 mmHg 40%
    12:00 +21°C° 0 mm 7 mps 753 mmHg 41%
    13:00 +21°C° 0 mm 7 mps 753 mmHg 41%
    14:00 +21°C° 0 mm 7 mps 752 mmHg 42%
    15:00 +20°C° 0 mm 7 mps 752 mmHg 46%
    16:00 +17°C° 0 mm 6 mps 752 mmHg 50%
    17:00 +16°C° 0 mm 6 mps 752 mmHg 53%
    18:00 +15°C° 0 mm 6 mps 752 mmHg 52%
    19:00 +15°C° 0 mm 6 mps 753 mmHg 51%
    20:00 +15°C° 0 mm 5 mps 753 mmHg 50%
    21:00 +14°C° 0.4 mm 6 mps 753 mmHg 53%
    22:00 +14°C° 0.4 mm 7 mps 753 mmHg 57%
    23:00 +13°C° 0.4 mm 8 mps 753 mmHg 60%
    Show more